Regional Weather Roundup
Issued by NWS Green Bay, WI

Home | Current Version | Previous Version | Text Only | Print | Product List | Glossary On
Versions: 1 2 3 4 5 6 7 8 9 10 11 12 13 14 15 16 17 18 19 20 21 22 23 24 25 26 27 28 29 30 31 32 33 34 35 36 37 38 39 40 41 42 43 44 45 46 47 48 49 50
000
ASUS43 KGRB 270111
RWRGRB

NORTH-CENTRAL AND NORTHEAST WISCONSIN REGIONAL WEATHER ROUNDUP
NATIONAL WEATHER SERVICE GREEN BAY WI
800 PM CDT THU APR 26 2018

WIZ005-009-010>012-018-019-270200-
NORTH CENTRAL WISCONSIN

CITY           SKY/WX    TMP DP  RH WIND       PRES   REMARKS
IRONWOOD       FAIR      44  33  65 N3        29.89F
MANITOWISH WTR FAIR      42  33  69 N5        29.88S
ARBOR VITAE    FAIR      42  35  77 NE5       29.87S
EAGLE RIVER    MOCLDY    40  32  71 N6        29.87R
LAND O LAKES   FAIR      39  33  78 N7        29.88S
RHINELANDER    CLOUDY    43  34  70 VRB3      29.87R
PHILLIPS       FAIR      46  32  59 N9        29.87S
ANTIGO         CLOUDY    46  34  61 N18G29    29.83R
TOMAHAWK       CLOUDY    43  33  67 N8        29.88R
MERRILL        CLOUDY    47  34  61 N10       29.86R
$$

WIZ013-073-270200-
NORTHEAST WISCONSIN

CITY           SKY/WX    TMP DP  RH WIND       PRES   REMARKS
IRON MOUNTAIN  CLOUDY    47  32  56 N14       29.82R
MARINETTE      CLOUDY    60  33  36 N23       29.77R
OCONTO         CLOUDY    60  33  36 CALM      29.74F
$$

WIZ017-030-035>037-045-270200-
CENTRAL WISCONSIN

CITY           SKY/WX    TMP DP  RH WIND       PRES   REMARKS
MEDFORD        MOCLDY    46  34  61 N15G23    29.85R
WAUSAU         CLOUDY    51  33  50 N17G30    29.81R
MOSINEE        MOCLDY    52  36  54 N23G29    29.82R
MARSHFIELD     MOCLDY    53  36  52 N20G29    29.80R
WISC RAPIDS    LGT RAIN  60  37  42 NW16G23   29.77R
STEVENS POINT  LGT RAIN  57  35  43 N18G25    29.78R
WAUPACA        FAIR      61  28  29 CALM      29.75F
SHAWANO        MOCLDY    60  30  32 CALM      29.74F
CLINTONVILLE   FAIR      57  33  39 CALM      29.74F
WAUTOMA        NOT AVBL
$$

WIZ038-039-048-051-270200-
FOX VALLEY

CITY           SKY/WX    TMP DP  RH WIND       PRES   REMARKS
NWS GREEN BAY  MOCLDY    59  38  45 S3        29.75F
APPLETON       NOT AVBL
OSHKOSH        FAIR      59  36  42 S5        29.75F
FOND DU LAC    FAIR      60  31  33 S6        29.76F
$$

WIZ022-050-052-270200-
EAST CENTRAL WISCONSIN

CITY           SKY/WX    TMP DP  RH WIND       PRES   REMARKS
EPHRAIM        CLOUDY    47  33  57 S8        29.74F
WASHINGTON ISL CLOUDY    43  33  69 NE18      29.80R
STURGEON BAY   FAIR      47  36  65 S9        29.76F
MANITOWOC      FAIR      48  35  60 SE6       29.78F
SHEBOYGAN      FAIR      50  34  54 S6        29.78F
$$

LMZ563-521-522-541>543-270200-
LAKESHORE

STATION/POSITION TIME  TEMP    WIND        PRES    VSBY  WAVE
                       AIR SEA DIR/SP/G                  HT/PER
                 (UTC) (F)     (DEG/KT/KT) (MB)    (MI)  (FT/S)
SHEBOYGAN LKSHOR 0100   44     180/ 16/ 17 1008.7F
KEWAUNEE LKSHORE 0048   43     170/ 12/ 13 1007.6F
NORTHPORT PIER   0040   45                 1009.1R
SISTER BAY LKSHO 0057   48     350/ 16/ 21   N/A
MENOMINEE LKSHOR 0048   46     160/  5/  6 1007.2F
$$




USA.gov is the U.S. government's official web portal to all federal, state and local government web resources and services.